Location: Metacom Observatory
(41.7315°N, 71.2698°W)
Time: 22:22:58
(UTC-04:00)

Envisat - Visible Passes

Search period start: 22 July 2018 00:00
Search period end: 01 August 2018 00:00
Orbit: 764 x 766 km, 98.2° (Epoch: 22 July)

Date Brightness Start Highest point End Pass type
(mag) Time Alt. Az. Time Alt. Az. Time Alt. Az.
23 Jul 5.3 20:57:49 10° SW 21:01:48 23° W 21:05:48 10° NW visible
25 Jul 5.8 21:25:21 10° WSW 21:27:38 13° W 21:29:56 10° WNW visible
26 Jul 5.0 20:46:11 10° SSW 20:50:33 29° W 20:54:57 10° NW visible
28 Jul 5.6 21:13:10 10° SW 21:16:21 17° W 21:19:33 10° NW visible
29 Jul 4.6 20:34:40 10° SSW 20:39:19 36° W 20:44:00 10° NNW visible
31 Jul 5.5 21:01:17 10° SW 21:05:04 21° W 21:08:53 10° NW visible
